User: anonymous   Login
Location: ??????
(55.6130°N, 37.7882°E)
Time: 16:27:55
(UTC+00:00)
Language:

CZ-2C R/B - Orbit

View from above orbital plane
View from above orbital plane
View from above satellite
View from above satellite

Ground track
Ground track

The orbit data is extracted from the following two-line orbital elements,

1 36089U 09061B   24176.86710709  .00000588  00000-0  15395-3 0  9997
2 36089  98.3589 142.6928 0081036  92.2806 268.7670 14.51033591773271
Epoch (UTC): 24 June 2024 20:48:38
Eccentricity: 0.0081036
inclination: 98.3589°
perigee height: 665 km
apogee height: 780 km
right ascension of ascending node: 142.6928°
argument of perigee: 92.2806°
revolutions per day: 14.51033591
mean anomaly at epoch: 268.7670°
orbit number at epoch: 77327

The dashed part of the orbit path shows where the satellite is in the earth's shadow,  

DLR